Date String (YYYY-MM-DD hh:mm:ss) UTC,Instrument flags,Ambient pressure (hPa),Sample flow (lpm),Bypass flow (lpm),Sample temperature (°C),Ambient temperature (°C),ASC tube jacket temperature (°C),LED temperature (°C),Box temperature (°C),Sample RH (%),Span deviation,Mass concentration (μg/m³),Mass concentration (μg/m³),Mass concentration (μg/m³)
DateTimeUTC,F1_M11,P_M11,Q1_M11,Q2_M11,T1_M11,T2_M11,T3_M11,T4_M11,T5_M11,U1_M11,ZSPAN_M11,X0_M11,X2_M11,X1_M11
2021-12-06 10:00:00,,0830.8,5.00,0.00,21.2,20.8,00.0,30.2,22.8,07.5,0000.0,0005.08,0002.21,0001.48
2021-12-06 10:01:00,,0830.8,5.00,0.00,21.2,20.6,00.0,30.2,22.7,07.5,0000.0,0004.81,0002.19,0001.48
2021-12-06 10:02:00,,0830.8,5.00,0.00,21.1,20.5,00.0,30.2,22.7,07.5,0000.0,0004.50,0002.17,0001.48
2021-12-06 10:03:00,,0830.7,5.01,0.00,21.1,20.3,00.0,30.2,22.6,07.6,0000.0,0004.24,0002.11,0001.48
2021-12-06 10:04:00,,0830.6,4.99,0.00,21.0,20.1,00.0,30.1,22.5,07.6,0000.0,0005.33,0002.14,0001.48
2021-12-06 10:05:00,,0830.4,5.01,0.00,21.0,19.9,00.0,30.1,22.4,07.6,0000.0,0005.93,0002.11,0001.47
2021-12-06 10:06:00,,0830.5,5.01,0.00,20.9,19.8,00.0,30.1,22.4,07.6,0000.0,0006.14,0002.11,0001.48
2021-12-06 10:07:00,,0830.7,4.99,0.00,20.9,19.8,00.0,30.1,22.3,07.6,0000.0,0006.01,0002.11,0001.48
2021-12-06 10:08:00,,0830.6,4.99,0.00,20.8,19.8,00.0,30.0,22.3,07.7,0000.0,0005.91,0002.07,0001.48
2021-12-06 10:09:00,,0830.6,5.00,0.00,20.8,20.1,00.0,30.0,22.4,07.7,0000.0,0005.77,0002.06,0001.48
2021-12-06 10:10:00,,0830.5,5.00,0.00,21.0,21.2,00.0,30.0,22.7,07.6,0000.0,0005.78,0002.01,0001.47
2021-12-06 10:11:00,,0830.4,5.01,0.00,21.1,22.3,00.0,30.1,23.1,07.5,0000.0,0006.02,0001.97,0001.45
2021-12-06 10:12:00,,0830.4,4.98,0.00,21.3,22.3,00.0,30.1,23.2,07.5,0000.0,0006.57,0001.98,0001.46
2021-12-06 10:13:00,,0830.5,4.99,0.00,21.3,21.8,00.0,30.2,23.1,07.4,0000.0,0006.54,0001.96,0001.46
2021-12-06 10:14:00,,0830.4,5.01,0.00,21.3,21.4,00.0,30.2,23.0,07.4,0000.0,0006.72,0001.95,0001.46
2021-12-06 10:15:00,,0830.5,5.01,0.00,21.2,21.0,00.0,30.2,22.8,07.4,0000.0,0006.69,0001.96,0001.45
2021-12-06 10:16:00,,0830.4,5.00,0.00,21.2,20.6,00.0,30.2,22.7,07.4,0000.0,0007.02,0002.02,0001.46
2021-12-06 10:17:00,,0830.2,5.00,0.00,21.1,20.4,00.0,30.1,22.6,07.5,0000.0,0007.00,0002.07,0001.48
2021-12-06 10:18:00,,0830.2,5.00,0.00,21.1,20.3,00.0,30.1,22.6,07.5,0000.0,0006.91,0002.09,0001.48
2021-12-06 10:19:00,,0830.2,5.00,0.00,21.1,20.1,00.0,30.1,22.6,07.5,0000.0,0007.29,0002.12,0001.48
2021-12-06 10:20:00,,0830.2,4.99,0.00,21.0,20.1,00.0,30.1,22.5,07.5,0000.0,0007.32,0002.12,0001.47
2021-12-06 10:21:00,,0830.2,5.02,0.00,21.0,19.9,00.0,30.1,22.4,07.5,0000.0,0007.30,0002.14,0001.47
2021-12-06 10:22:00,,0830.1,4.99,0.00,20.9,19.8,00.0,30.1,22.3,07.5,0000.0,0007.32,0002.15,0001.47
2021-12-06 10:23:00,,0830.1,4.99,0.00,20.8,19.7,00.0,30.0,22.3,07.5,0000.0,0007.98,0002.10,0001.46
2021-12-06 10:24:00,,0830.1,5.00,0.00,20.8,20.2,00.0,30.0,22.4,07.5,0000.0,0008.43,0002.16,0001.46
2021-12-06 10:25:00,,0830.3,5.01,0.00,21.0,21.3,00.0,30.0,22.7,07.5,0000.0,0008.59,0002.23,0001.46
2021-12-06 10:26:00,,0830.2,5.01,0.00,21.2,22.3,00.0,30.1,23.1,07.4,0000.0,0008.61,0002.26,0001.47
2021-12-06 10:27:00,,0830.1,4.98,0.00,21.3,22.3,00.0,30.1,23.2,07.3,0000.0,0007.57,0002.20,0001.47
2021-12-06 10:28:00,,0830.1,5.01,0.00,21.3,21.9,00.0,30.2,23.2,07.3,0000.0,0007.18,0002.10,0001.46
2021-12-06 10:29:00,,0830.1,4.99,0.00,21.3,21.5,00.0,30.2,23.0,07.3,0000.0,0007.01,0002.07,0001.46
2021-12-06 10:30:00,,0830.1,5.00,0.00,21.3,21.1,00.0,30.2,22.9,07.3,0000.0,0006.85,0002.05,0001.46
2021-12-06 10:31:00,,0829.9,5.01,0.00,21.2,20.8,00.0,30.2,22.8,07.3,0000.0,0006.88,0002.05,0001.46
2021-12-06 10:32:00,,0829.9,5.00,0.00,21.2,20.6,00.0,30.2,22.7,07.3,0000.0,0006.84,0002.04,0001.46
2021-12-06 10:33:00,,0829.8,5.00,0.00,21.1,20.4,00.0,30.2,22.7,07.2,0000.0,0006.93,0002.03,0001.45
2021-12-06 10:34:00,,0829.9,5.01,0.00,21.1,20.3,00.0,30.2,22.6,07.2,0000.0,0004.90,0002.01,0001.44
2021-12-06 10:35:00,,0829.9,5.00,0.00,21.1,20.2,00.0,30.1,22.6,07.2,0000.0,0005.40,0001.94,0001.43
2021-12-06 10:36:00,,0829.8,4.99,0.00,21.0,20.1,00.0,30.1,22.5,07.2,0000.0,0005.34,0001.90,0001.42
2021-12-06 10:37:00,,0829.8,4.99,0.00,21.0,20.0,00.0,30.1,22.5,07.2,0000.0,0005.31,0001.86,0001.40
2021-12-06 10:38:00,,0829.8,5.01,0.00,20.9,19.9,00.0,30.1,22.4,07.3,0000.0,0005.43,0001.87,0001.39
2021-12-06 10:39:00,,0829.8,5.01,0.00,20.9,19.9,00.0,30.1,22.4,07.3,0000.0,0005.54,0001.90,0001.38
2021-12-06 10:40:00,,0829.9,4.99,0.00,20.9,20.0,00.0,30.0,22.4,07.3,0000.0,0005.75,0001.92,0001.37
2021-12-06 10:41:00,,0829.9,5.01,0.00,21.0,20.9,00.0,30.0,22.6,07.2,0000.0,0005.66,0001.91,0001.36
2021-12-06 10:42:00,,0829.8,5.00,0.00,21.1,21.8,00.0,30.1,23.0,07.2,0000.0,0005.61,0001.87,0001.33
2021-12-06 10:43:00,,0829.7,5.01,0.00,21.3,22.5,00.0,30.1,23.2,07.1,0000.0,0006.36,0001.85,0001.31
2021-12-06 10:44:00,,0829.6,5.00,0.00,21.4,22.2,00.0,30.2,23.3,07.1,0000.0,0006.26,0001.86,0001.32
2021-12-06 10:45:00,,0829.9,4.99,0.00,21.4,21.8,00.0,30.2,23.2,07.1,0000.0,0006.32,0001.91,0001.33
2021-12-06 10:46:00,,0829.8,5.00,0.00,21.4,21.5,00.0,30.2,23.1,07.1,0000.0,0005.32,0001.90,0001.32
2021-12-06 10:47:00,,0829.8,5.00,0.00,21.4,21.2,00.0,30.2,23.1,07.1,0000.0,0004.80,0001.89,0001.32
2021-12-06 10:48:00,,0829.8,4.99,0.00,21.3,21.0,00.0,30.2,23.0,07.1,0000.0,0004.46,0001.89,0001.32
2021-12-06 10:49:00,,0829.6,4.99,0.00,21.3,20.9,00.0,30.2,23.0,07.1,0000.0,0004.65,0001.92,0001.33
2021-12-06 10:50:00,,0829.6,5.01,0.00,21.3,20.7,00.0,30.2,22.9,07.1,0000.0,0004.68,0001.93,0001.32
2021-12-06 10:51:00,,0829.6,4.99,0.00,21.2,20.5,00.0,30.2,22.8,07.1,0000.0,0004.55,0001.91,0001.31
2021-12-06 10:52:00,,0829.6,5.00,0.00,21.2,20.4,00.0,30.2,22.8,07.1,0000.0,0004.41,0001.89,0001.31
2021-12-06 10:53:00,,0829.6,5.00,0.00,21.2,20.3,00.0,30.2,22.7,07.1,0000.0,0004.25,0001.88,0001.32
2021-12-06 10:54:00,,0829.6,4.99,0.00,21.1,20.2,00.0,30.2,22.7,07.1,0000.0,0003.65,0001.91,0001.33
2021-12-06 10:55:00,,0829.6,5.02,0.00,21.1,20.1,00.0,30.2,22.6,07.1,0000.0,0003.60,0001.91,0001.33
2021-12-06 10:56:00,,0829.6,4.98,0.00,21.1,20.1,00.0,30.2,22.6,07.1,0000.0,0003.47,0001.86,0001.31
2021-12-06 10:57:00,,0829.6,5.01,0.00,21.1,20.4,00.0,30.2,22.6,07.1,0000.0,0003.66,0001.91,0001.33
2021-12-06 10:58:00,,0829.6,5.01,0.00,21.2,21.4,00.0,30.2,22.9,07.1,0000.0,0003.67,0001.91,0001.31
2021-12-06 10:59:00,,0829.6,5.01,0.00,21.4,22.4,00.0,30.2,23.3,07.0,0000.0,0004.14,0001.88,0001.30
